When you browse on this site, cookies collect data to enhance your experience and personalize the content and advertising you see.
Visit our Privacy Policy to learn more. By continuing to use the site, you agree to this use of cookies and data.
  • In Hungary
  • List of Countries
  • For 7 days
  • Water Temperature
  • Weather Map
  • News
  • Weather Widgets
  • user-avatar
    Login

    Hourly Weather Bukrovo

    Today, 25 January, Saturday

    Time Temperature Precipitation Wind Pressure Humidity
    00:00 0°C° 0.1 mm 5 mps 732 mmHg 92%
    01:00 0°C° 0.1 mm 4 mps 732 mmHg 90%
    02:00 0°C° 0.1 mm 4 mps 732 mmHg 88%
    03:00 -1°C° 0 mm 4 mps 732 mmHg 87%
    04:00 -1°C° 0 mm 4 mps 731 mmHg 86%
    05:00 -1°C° 0 mm 4 mps 731 mmHg 85%
    06:00 -1°C° 0 mm 4 mps 731 mmHg 87%
    07:00 -1°C° 0 mm 4 mps 731 mmHg 89%
    08:00 -1°C° 0 mm 5 mps 731 mmHg 91%
    09:00 -1°C° 0.1 mm 5 mps 730 mmHg 87%
    10:00 -1°C° 0.1 mm 6 mps 730 mmHg 82%
    11:00 -1°C° 0.1 mm 6 mps 730 mmHg 78%
    12:00 -1°C° 0.2 mm 6 mps 730 mmHg 75%
    13:00 -2°C° 0.2 mm 7 mps 730 mmHg 71%
    14:00 -2°C° 0.2 mm 7 mps 730 mmHg 67%
    15:00 -3°C° 0 mm 6 mps 730 mmHg 69%
    16:00 -4°C° 0 mm 6 mps 731 mmHg 71%
    17:00 -4°C° 0 mm 6 mps 732 mmHg 73%
    18:00 -4°C° 0 mm 6 mps 732 mmHg 75%
    19:00 -5°C° 0 mm 6 mps 732 mmHg 77%
    20:00 -5°C° 0 mm 6 mps 733 mmHg 78%
    21:00 -5°C° 0 mm 6 mps 734 mmHg 79%
    22:00 -5°C° 0 mm 6 mps 734 mmHg 79%
    23:00 -5°C° 0 mm 6 mps 735 mmHg 79%

    Tomorrow, 26 January, Sunday

    Time Temperature Precipitation Wind Pressure Humidity
    00:00 -5°C° 0 mm 6 mps 736 mmHg 78%
    01:00 -5°C° 0 mm 5 mps 737 mmHg 77%
    02:00 -6°C° 0 mm 5 mps 738 mmHg 75%
    03:00 -6°C° 0 mm 5 mps 738 mmHg 76%
    04:00 -5°C° 0 mm 4 mps 739 mmHg 77%
    05:00 -5°C° 0 mm 4 mps 740 mmHg 78%
    06:00 -5°C° 0 mm 4 mps 740 mmHg 79%
    07:00 -5°C° 0 mm 3 mps 741 mmHg 80%
    08:00 -5°C° 0 mm 3 mps 741 mmHg 81%
    09:00 -5°C° 0 mm 3 mps 741 mmHg 80%
    10:00 -4°C° 0 mm 4 mps 742 mmHg 79%
    11:00 -3°C° 0 mm 4 mps 742 mmHg 79%
    12:00 -3°C° 0 mm 4 mps 741 mmHg 81%
    13:00 -4°C° 0 mm 5 mps 741 mmHg 83%
    14:00 -4°C° 0 mm 5 mps 741 mmHg 85%
    15:00 -4°C° 0.1 mm 6 mps 740 mmHg 85%
    16:00 -4°C° 0.1 mm 6 mps 739 mmHg 84%
    17:00 -3°C° 0.1 mm 6 mps 739 mmHg 84%
    18:00 -2°C° 0.1 mm 6 mps 738 mmHg 87%
    19:00 -1°C° 0.1 mm 6 mps 738 mmHg 90%
    20:00 +1°C° 0.1 mm 5 mps 738 mmHg 93%
    21:00 +1°C° 0.1 mm 5 mps 738 mmHg 92%
    22:00 +1°C° 0.1 mm 6 mps 738 mmHg 92%
    23:00 +1°C° 0.1 mm 6 mps 738 mmHg 91%

    Day after tomorrow, 27 January, Monday

    Time Temperature Precipitation Wind Pressure Humidity
    00:00 +1°C° 0 mm 5 mps 738 mmHg 92%
    01:00 +1°C° 0 mm 5 mps 739 mmHg 92%
    02:00 +1°C° 0 mm 5 mps 739 mmHg 92%
    03:00 +1°C° 0 mm 4 mps 739 mmHg 93%
    04:00 0°C° 0 mm 4 mps 739 mmHg 94%
    05:00 0°C° 0 mm 4 mps 740 mmHg 95%
    06:00 0°C° 0.1 mm 4 mps 740 mmHg 96%
    07:00 +1°C° 0.1 mm 3 mps 740 mmHg 96%
    08:00 +1°C° 0.1 mm 3 mps 740 mmHg 97%
    09:00 +2°C° 0.1 mm 2 mps 741 mmHg 97%
    10:00 +2°C° 0.1 mm 2 mps 741 mmHg 97%
    11:00 +2°C° 0.1 mm 2 mps 741 mmHg 98%
    12:00 +2°C° 0.2 mm 2 mps 741 mmHg 98%
    13:00 +2°C° 0.2 mm 2 mps 741 mmHg 98%
    14:00 +2°C° 0.2 mm 2 mps 741 mmHg 98%
    15:00 +2°C° 0.5 mm 2 mps 741 mmHg 98%
    16:00 +2°C° 0.5 mm 2 mps 741 mmHg 98%
    17:00 +2°C° 0.5 mm 2 mps 741 mmHg 98%
    18:00 +2°C° 0.4 mm 2 mps 741 mmHg 98%
    19:00 +2°C° 0.4 mm 2 mps 741 mmHg 98%
    20:00 +2°C° 0.4 mm 2 mps 741 mmHg 98%
    21:00 +2°C° 0.5 mm 2 mps 741 mmHg 98%
    22:00 +2°C° 0.5 mm 2 mps 741 mmHg 98%
    23:00 +1°C° 0.5 mm 2 mps 741 mmHg 98%

    28 January, Tuesday

    Time Temperature Precipitation Wind Pressure Humidity
    00:00 +1°C° 0.2 mm 2 mps 740 mmHg 98%
    01:00 +1°C° 0.2 mm 2 mps 740 mmHg 98%
    02:00 +1°C° 0.2 mm 2 mps 740 mmHg 98%
    03:00 +1°C° 0.3 mm 2 mps 740 mmHg 98%
    04:00 +1°C° 0.3 mm 2 mps 739 mmHg 98%
    05:00 +1°C° 0.3 mm 2 mps 739 mmHg 98%
    06:00 +1°C° 0.3 mm 2 mps 739 mmHg 98%
    07:00 +1°C° 0.3 mm 2 mps 739 mmHg 98%
    08:00 +1°C° 0.3 mm 2 mps 739 mmHg 98%
    09:00 +1°C° 0.1 mm 2 mps 739 mmHg 98%
    10:00 +1°C° 0.1 mm 2 mps 739 mmHg 98%
    11:00 +2°C° 0.1 mm 1 mps 739 mmHg 98%
    12:00 +2°C° 0.1 mm 1 mps 738 mmHg 98%
    13:00 +2°C° 0.1 mm 1 mps 738 mmHg 98%
    14:00 +1°C° 0.1 mm 1 mps 738 mmHg 98%
    15:00 +1°C° 0.1 mm 1 mps 738 mmHg 98%
    16:00 +1°C° 0.1 mm 1 mps 738 mmHg 98%
    17:00 +1°C° 0.1 mm 1 mps 738 mmHg 98%
    18:00 +1°C° 0.1 mm 1 mps 738 mmHg 98%
    19:00 +1°C° 0.1 mm 1 mps 738 mmHg 97%
    20:00 -1°C° 0.1 mm 2 mps 738 mmHg 97%
    21:00 +1°C° 0 mm 1 mps 738 mmHg 96%
    22:00 +1°C° 0 mm 1 mps 738 mmHg 96%
    23:00 0°C° 0 mm 1 mps 738 mmHg 95%

    29 January, Wednesday

    Time Temperature Precipitation Wind Pressure Humidity
    00:00 0°C° 0.1 mm 1 mps 738 mmHg 96%
    01:00 0°C° 0.1 mm 1 mps 737 mmHg 97%
    02:00 0°C° 0.1 mm 1 mps 737 mmHg 98%
    03:00 -1°C° 0.1 mm 2 mps 737 mmHg 98%
    04:00 -1°C° 0.1 mm 2 mps 737 mmHg 97%
    05:00 +1°C° 0.1 mm 2 mps 737 mmHg 97%
    06:00 0°C° 0 mm 3 mps 737 mmHg 96%
    07:00 0°C° 0 mm 3 mps 736 mmHg 96%
    08:00 -1°C° 0 mm 4 mps 736 mmHg 95%
    09:00 -1°C° 0 mm 4 mps 736 mmHg 93%
    10:00 -1°C° 0 mm 4 mps 736 mmHg 91%
    11:00 -1°C° 0 mm 4 mps 736 mmHg 89%
    12:00 0°C° 0 mm 4 mps 735 mmHg 90%
    13:00 0°C° 0 mm 4 mps 735 mmHg 90%
    14:00 0°C° 0 mm 4 mps 734 mmHg 90%
    15:00 0°C° 0.1 mm 4 mps 734 mmHg 92%
    16:00 0°C° 0.1 mm 4 mps 734 mmHg 95%
    17:00 0°C° 0.1 mm 4 mps 734 mmHg 97%
    18:00 0°C° 0.1 mm 4 mps 733 mmHg 97%
    19:00 0°C° 0.1 mm 4 mps 733 mmHg 97%
    20:00 0°C° 0.1 mm 5 mps 732 mmHg 97%
    21:00 0°C° 0.2 mm 5 mps 732 mmHg 97%
    22:00 0°C° 0.2 mm 5 mps 731 mmHg 96%
    23:00 0°C° 0.2 mm 5 mps 731 mmHg 96%

    30 January, Thursday

    Time Temperature Precipitation Wind Pressure Humidity
    00:00 0°C° 0.4 mm 5 mps 731 mmHg 96%
    01:00 0°C° 0.4 mm 4 mps 730 mmHg 97%
    02:00 0°C° 0.4 mm 4 mps 730 mmHg 97%
    03:00 -1°C° 0.5 mm 4 mps 730 mmHg 97%
    04:00 -1°C° 0.5 mm 4 mps 730 mmHg 97%
    05:00 -1°C° 0.5 mm 4 mps 730 mmHg 97%
    06:00 -1°C° 0 mm 3 mps 730 mmHg 95%
    07:00 -1°C° 0 mm 3 mps 730 mmHg 92%
    08:00 -1°C° 0 mm 3 mps 730 mmHg 90%
    09:00 -1°C° 0 mm 3 mps 731 mmHg 89%
    10:00 -1°C° 0 mm 3 mps 731 mmHg 88%
    11:00 -1°C° 0 mm 3 mps 731 mmHg 86%
    12:00 -1°C° 0 mm 2 mps 731 mmHg 86%
    13:00 -1°C° 0 mm 2 mps 731 mmHg 86%
    14:00 -1°C° 0 mm 2 mps 731 mmHg 86%
    15:00 +1°C° 0 mm 1 mps 731 mmHg 88%
    16:00 0°C° 0 mm 1 mps 731 mmHg 90%
    17:00 0°C° 0 mm 1 mps 731 mmHg 92%
    18:00 0°C° 0 mm 1 mps 731 mmHg 93%
    19:00 0°C° 0 mm 1 mps 731 mmHg 94%
    20:00 0°C° 0 mm 1 mps 731 mmHg 95%
    21:00 -1°C° 0.1 mm 0 mps 731 mmHg 96%
    22:00 -1°C° 0.1 mm 0 mps 731 mmHg 97%
    23:00 -1°C° 0.1 mm 0 mps 731 mmHg 97%
    Show more